Location: Béaulencourt
(50.0796°N, 2.8795°E)
Time: 23:52:21
(UTC+00:00)

Cosmos 2184 Rocket - Pass Details

Date: 20 January 2026
Orbit: 959 x 1001 km, 82.9° (Epoch: 18 February)

Event Time Altitude Azimuth Distance (km) Brightness Sun altitude
Rises 05:45:51 0° 211° (SSW) 3,645 6.8 -17.4°
Reaches altitude 10° 05:48:30 10° 219° (SW) 2,698 6.1 -17.0°
Maximum altitude 05:54:18 41° 288° (WNW) 1,358 4.3 -16.1°
Drops below altitude 10° 06:00:07 10° 359° (N) 2,704 6.2 -15.2°
Sets 06:02:48 0° 6° (N) 3,654 6.9 -14.8°
